[[{"header":{"parameterUnit":"m.s-1","parameterCategory":1,"la1":30.2992,"la2":30.254,"lo1":-89.0895,"lo2":-89.0443,"dy":0.0025,"dx":0.0025,"nx":19,"ny":19,"refTime":"2026-04-11T21:00:00:Z","depth":0,"parameterNumber":2,"parameterNumberName":"U-component_of_WINDS"},"data":[0,0,0,-1.5145,-1.5145,-1.5171,-1.5171,-1.521,-1.5211,0,0,0,0,0,0,0,0,0,0,0,-1.5139,-1.5139,-1.5145,-1.5145,-1.5171,-1.5171,-1.521,-1.5211,0,0,0,0,0,0,0,0,0,0,0,-1.5139,-1.5139,-1.514,-1.5146,-1.5171,-1.5171,-1.521,-1.5189,0,0,0,0,0,0,0,0,0,0,-1.5164,-1.5159,-1.5139,-1.514,-1.5146,-1.5171,-1.5171,-1.5188,-1.519,-1.5201,0,-1.5209,0,-1.5211,-1.5214,-1.5214,0,0,0,-1.5144,-1.5157,-1.5162,-1.514,-1.5146,-1.5171,-1.5159,-1.5189,-1.5192,-1.5205,-1.521,-1.5211,-1.5211,-1.5214,-1.5214,-1.5278,-1.5278,0,0,-1.5143,-1.5145,-1.516,-1.5164,-1.5158,-1.5158,-1.516,-1.5191,-1.5197,-1.521,-1.5212,-1.5212,-1.5214,-1.5215,-1.5277,-1.5278,0,0,0,-1.514,-1.5144,-1.5148,-1.5163,-1.5167,-1.5159,-1.5161,-1.5196,-1.5197,-1.5212,-1.5212,-1.5214,-1.5215,-1.5277,-1.5277,-1.5296,0,0,0,-1.5139,-1.5142,-1.5148,-1.5149,-1.5166,-1.5181,-1.5165,-1.5195,-1.5198,-1.5212,-1.5214,-1.5215,-1.5276,-1.5277,-1.5294,-1.5304,0,0,0,-1.5137,-1.5142,-1.5146,-1.5149,-1.516,-1.518,-1.5183,-1.5196,-1.5199,-1.5214,-1.5216,-1.5276,-1.5277,-1.5293,-1.5302,-1.5322,0,0,0,-1.5135,-1.5161,-1.5146,-1.5175,-1.516,-1.5191,-1.5183,-1.5207,-1.5222,-1.5215,-1.5276,-1.5277,-1.5293,-1.53,-1.532,-1.5338,-1.5346,0,0,-1.5168,-1.5165,-1.5182,-1.517,-1.5204,-1.5187,-1.5226,-1.5238,-1.5239,-1.5266,-1.5267,-1.5295,-1.5301,-1.5321,-1.5389,-1.5395,0,0,0,-1.5193,-1.5205,-1.5214,-1.5228,-1.5239,-1.525,-1.5257,-1.5263,-1.5285,-1.5252,-1.5308,-1.5312,-1.5323,-1.5332,-1.5337,-1.5348,-1.5281,-1.5281,-1.5281,-1.524,-1.524,-1.527,-1.5274,-1.5289,-1.5298,-1.5311,-1.532,-1.5315,-1.5329,-1.5336,-1.5377,-1.5387,-1.5391,-1.5402,-1.5346,-1.5346,-1.5346,-1.5346,-1.5288,-1.5306,-1.5302,-1.5329,-1.5331,-1.5354,-1.5366,-1.5362,-1.5386,-1.537,-1.5381,-1.5363,-1.5397,-1.5407,-1.5348,-1.5347,-1.5347,-1.5347,-1.5347,-1.5319,-1.5328,-1.5335,-1.5358,-1.5378,-1.5383,-1.5407,-1.5407,-1.5408,-1.5419,-1.5428,-1.5428,-1.5428,-1.5424,-1.5424,-1.5424,-1.5424,-1.5424,-1.5424,-1.5347,-1.5355,-1.5373,-1.539,-1.5402,-1.5418,-1.5431,-1.5443,-1.5457,-1.5456,-1.5456,-1.5452,-1.54,-1.5387,-1.5426,-1.5426,-1.5426,-1.5425,-1.5425,-1.5395,-1.5385,-1.5414,-1.5426,-1.5448,-1.5469,-1.5471,-1.5497,-1.5508,-1.5521,-1.5516,-1.5477,-1.5474,-1.547,-1.5459,-1.5514,-1.5514,-1.5514,-1.5514,-1.542,-1.542,-1.5451,-1.5471,-1.549,-1.5497,-1.5534,-1.5546,-1.5558,-1.5565,-1.5558,-1.5545,-1.5541,-1.554,-1.5534,-1.5524,-1.5594,-1.5595,-1.5595,-1.5451,-1.5452,-1.5481,-1.5492,-1.551,-1.5528,-1.5563,-1.5589,-1.56,-1.5598,-1.5572,-1.5569,-1.5547,-1.5539,-1.5534,-1.5525,-1.5507,0,0]},{"header":{"parameterUnit":"m.s-1","parameterCategory":1,"la1":30.2992,"la2":30.254,"lo1":-89.0895,"lo2":-89.0443,"dy":0.0025,"dx":0.0025,"nx":19,"ny":19,"refTime":"2026-04-11T21:00:00:Z","depth":0,"parameterNumber":3,"parameterNumberName":"V-component_of_WINDS"},"data":[0,0,0,3.9242,3.9241,3.9242,3.9242,3.9222,3.9222,0,0,0,0,0,0,0,0,0,0,0,3.923,3.9229,3.9242,3.9241,3.9242,3.9242,3.9222,3.9222,0,0,0,0,0,0,0,0,0,0,0,3.923,3.923,3.9229,3.9241,3.9242,3.9243,3.9222,3.9229,0,0,0,0,0,0,0,0,0,0,3.9231,3.921,3.923,3.9229,3.9241,3.9242,3.9243,3.9229,3.9228,3.9213,0,3.9198,0,3.921,3.9219,3.9219,0,0,0,3.9249,3.921,3.9222,3.9229,3.9241,3.9242,3.9244,3.9229,3.9228,3.9212,3.9198,3.9198,3.921,3.9219,3.9219,3.9112,3.9111,0,0,3.9249,3.9223,3.9222,3.922,3.9221,3.9244,3.9244,3.9229,3.9211,3.9198,3.9198,3.9209,3.9219,3.9218,3.9113,3.9112,0,0,0,3.9244,3.9223,3.9235,3.922,3.9223,3.9244,3.9244,3.9212,3.9218,3.9198,3.9209,3.9219,3.9218,3.9114,3.9113,3.9047,0,0,0,3.9244,3.922,3.9234,3.9218,3.9222,3.9218,3.9227,3.9219,3.9218,3.9209,3.9219,3.9218,3.9115,3.9113,3.9051,3.9019,0,0,0,3.9233,3.9219,3.9215,3.9217,3.9217,3.9219,3.9224,3.922,3.9225,3.9219,3.9218,3.9116,3.9114,3.9054,3.9025,3.8984,0,0,0,3.9214,3.9154,3.9214,3.9151,3.9217,3.9179,3.9225,3.9197,3.9184,3.9218,3.9115,3.9113,3.9055,3.9028,3.8988,3.8945,3.8925,0,0,3.9124,3.9142,3.9108,3.9161,3.9106,3.9181,3.9116,3.9126,3.9148,3.9122,3.912,3.9049,3.9025,3.8985,3.8824,3.8808,0,0,0,3.907,3.9045,3.9036,3.9025,3.9034,3.9039,3.9064,3.9069,3.9049,3.913,3.9025,3.9011,3.8988,3.8969,3.8956,3.8938,3.9103,3.9103,3.9104,3.8903,3.8938,3.8883,3.8918,3.8906,3.8934,3.8927,3.8938,3.8973,3.8948,3.8939,3.8838,3.8815,3.8805,3.8786,3.8921,3.892,3.892,3.892,3.8773,3.8743,3.8796,3.8761,3.8797,3.8768,3.8793,3.882,3.8797,3.8846,3.8828,3.8878,3.8786,3.8771,3.8915,3.8916,3.8917,3.8917,3.8917,3.8667,3.8659,3.8668,3.8657,3.8645,3.8682,3.8659,3.8692,3.8723,3.8705,3.8701,3.8702,3.8707,3.8701,3.8701,3.87,3.87,3.87,3.87,3.8553,3.8566,3.8543,3.8551,3.855,3.8552,3.8582,3.8581,3.8588,3.8613,3.8613,3.8651,3.8772,3.8801,3.8694,3.8695,3.8696,3.8696,3.8697,3.8407,3.8446,3.8411,3.841,3.8424,3.841,3.8454,3.8449,3.8453,3.8441,3.8484,3.8568,3.8588,3.8599,3.8623,3.8477,3.8477,3.8477,3.8477,3.8316,3.8331,3.8305,3.8302,3.8302,3.834,3.8299,3.8322,3.8352,3.8356,3.8383,3.8419,3.8428,3.8442,3.8457,3.848,3.8301,3.8301,3.8301,3.8229,3.8246,3.8205,3.8238,3.8252,3.8262,3.8226,3.8218,3.826,3.8294,3.8361,3.8368,3.8426,3.8443,3.8476,3.8498,3.8541,0,0]}]]